Tracking 26321 objects as of 28-Nov-2022
HD Live streaming from Space Station
objects crossing your sky now

ATLAS 5 CENTAUR DEB

Track ATLAS 5 CENTAUR DEB now!


NORAD ID: 46665
Int'l Code: 2018-079CT
Perigee: 9,468.8 km
Apogee: 36,761.0 km
Inclination: 10.9 °
Period: 839.8 minutes
Semi major axis: 29485 km
RCS: Unknown
Launch date: October 17, 2018
Source: United States (US)
Launch site: AIR FORCE EASTERN TEST RANGE (AFETR)

Note: This is SATELLITE DEBRIS
aabbcc
Your satellite tracking list
Your tracking list is empty




NASA's NSSDC Master Catalog

Two Line Element Set (TLE):
1 46665U 18079CT  22331.27962665 -.00000062  00000-0  00000-0 0  9995
2 46665  10.9402 166.4619 4628001  56.4557 339.7241  1.71467273 13372
Source of the keplerian elements: AFSPC